User: anonymous   Login
Location: Unspecified
(0.0000°N, 0.0000°E)
Time: 05:31:27
(UTC+00:00)
Language:

SINAH 1 - Orbit

View from above orbital plane
View from above orbital plane
View from above satellite
View from above satellite

Ground track
Ground track

The orbit data is extracted from the following two-line orbital elements,

1 28893U 05043D   17177.94608602 -.00000008 +00000-0 +72991-5 0  9992
2 28893 097.8758 335.5893 0016539 119.8538 240.4310 14.61436646621623
Epoch (UTC): 26 June 2017 22:42:21
Eccentricity: 0.0016539
inclination: 97.8758°
perigee height: 677 km
apogee height: 700 km
right ascension of ascending node: 335.5893°
argument of perigee: 119.8538°
revolutions per day: 14.61436646
mean anomaly at epoch: 240.4310°
orbit number at epoch: 62162

The dashed part of the orbit path shows where the satellite is in the earth's shadow,  

DLR